sat.trackr.live / text

‹ back to catalog

GPS BIII-7 (PRN 01)

NORAD 62339 · 2024-242A

PAYLOAD ACTIVE UNKNOWN

§ Identity

Operator
Country
US
Launch date
2024-12-17
Launch site
AFETR
Launch vehicle
Mass (kg)
RCS (m²)

Purposes: nav

External: N2YO · Heavens-Above · Gunter

§ Orbital elements

Epoch: 2026-09-18T02:04:32.705760Z

Period
717.94 min
Inclination
54.8023°
Eccentricity
0.0019531
Mean motion
2.00574134 rev/d
Perigee alt
20,129.4 km
Apogee alt
20,233.2 km
Semi-major
26,559.4 km
B*
0.0000e+0
RAAN
330.4119°
Arg perigee
0.8173°
Mean anomaly
9.1481°
Rev number
1,312

§ Raw data

GPS BIII-7  (PRN 01)1 62339U 24242A   26261.08648965 -.00000094  00000+0  00000+0 0  99922 62339  54.8023 330.4119 0019531   0.8173   9.1481  2.00574134 13122

JSON: /api/v1/satellites/62339 · /tle

For live sub-satellite position, see the globe view (requires WebGL).

§ Visibility from observer

Set your observer location to see the next 7 days of passes ≥ 10°. The values pass through the URL so the page stays shareable.

No JS? Fill the form by hand. The geolocation button needs JavaScript.